SR5NLK-1 Weather Reports


Display with metric or nautical units.
time (UTC)temp
F
wind
direction
speed
MPH
gust
MPH
rain 1hr
in
rain 24hr
in
rain mn
in
humidity
%
barometer
mb
20260510040721 50 67 0.0 1.0 0.00 0.00 0.00 88 1075.2
20260510040221 47 45 1.0 1.0 0.00 0.00 0.00 89 1030.3
20260510035721 43 45 0.0 1.0 0.00 0.00 0.00 87 1062.6
20260510035221 42 337 0.0 0.0 0.00 0.00 0.00 85 1065.8
20260510035120 41 315 0.0 0.0 0.00 0.00 0.00 85 1069.0
20260510034721 41 202 0.0 0.0 0.00 0.00 0.00 84 1065.8
20260510034221 41 157 0.0 0.0 0.00 0.00 0.00 84 1059.8
20260510033721 40 135 0.0 0.0 0.00 0.00 0.00 83 1062.7
20260510033221 39 135 0.0 0.0 0.00 0.00 0.00 83 1078.3
20260510032721 39 157 0.0 0.0 0.00 0.00 0.00 83 1075.2
20260510032221 39 112 0.0 0.0 0.00 0.00 0.00 83 1072.2
20260510031820 39 90 0.0 0.0 0.00 0.00 0.00 83 1078.3
20260510031721 39 90 0.0 0.0 0.00 0.00 0.00 82 1024.0
20260510031221 39 67 0.0 0.0 0.00 0.00 0.00 82 1065.8
20260510030721 39 0 0.0 0.0 0.00 0.00 0.00 82 1087.8
20260510030221 39 337 0.0 0.0 0.00 0.00 0.00 82 1075.2
20260510025721 39 270 0.0 0.0 0.00 0.00 0.00 82 1065.8
20260510025221 39 112 0.0 0.0 0.00 0.00 0.00 82 1059.5
20260510024721 39 157 0.0 0.0 0.00 0.00 0.00 82 1042.8
20260510024520 39 67 0.0 0.0 0.00 0.00 0.00 82 1042.8
20260510024221 39 112 0.0 0.0 0.00 0.00 0.00 82 1056.4
20260510023721 39 112 0.0 0.0 0.00 0.00 0.00 82 1072.1
20260510023221 39 112 0.0 0.0 0.00 0.00 0.00 82 1056.4
20260510022721 40 112 0.0 0.0 0.00 0.00 0.00 82 1039.7
20260510022221 40 112 0.0 0.0 0.00 0.00 0.00 82 1049.1
20260510021722 40 112 0.0 0.0 0.00 0.00 0.00 82 1050.0
20260510021220 40 112 0.0 0.0 0.00 0.00 0.00 82 1065.8
20260510020721 40 67 0.0 0.0 0.00 0.00 0.00 82 1059.5
20260510020221 40 135 0.0 0.0 0.00 0.00 0.00 82 1087.8
20260510015721 40 135 0.0 0.0 0.00 0.00 0.00 82 1072.1
20260510015221 40 67 0.0 0.0 0.00 0.00 0.00 82 1065.8
20260510014721 40 67 0.0 0.0 0.00 0.00 0.00 82 1069.0
20260510014221 41 112 0.0 0.0 0.00 0.00 0.00 82 1072.1
20260510013920 41 112 0.0 0.0 0.00 0.00 0.00 82 1059.5
20260510013721 41 90 0.0 0.0 0.00 0.00 0.00 82 1075.2
20260510013221 41 90 0.0 0.0 0.00 0.00 0.00 82 1078.4
20260510012722 41 135 0.0 0.0 0.00 0.00 0.00 82 1078.4
20260510012221 40 112 0.0 0.0 0.00 0.00 0.00 81 1100.3
20260510011721 40 112 0.0 0.0 0.00 0.00 0.00 81 1084.7
20260510011221 40 157 0.0 0.0 0.00 0.00 0.00 81 1020.8
20260510010721 40 157 0.0 0.0 0.00 0.00 0.00 81 1065.8
20260510010620 40 157 0.0 0.0 0.00 0.00 0.00 81 1075.2
20260510010221 40 135 0.0 0.0 0.00 0.00 0.00 81 1007.3
20260510005721 40 247 0.0 0.0 0.00 0.00 0.00 80 1081.5
20260510005221 40 180 0.0 0.0 0.00 0.00 0.00 80 1081.5
20260510004721 40 180 0.0 0.0 0.00 0.00 0.00 80 1042.9
20260510004221 40 157 0.0 0.0 0.00 0.00 0.00 80 1075.2
20260510003721 40 157 0.0 0.0 0.00 0.00 0.00 80 1081.5
20260510003320 41 225 0.0 0.0 0.00 0.00 0.00 80 1033.4
20260510003221 41 202 0.0 0.0 0.00 0.00 0.00 80 1078.4
20260510002721 41 202 0.0 0.0 0.00 0.00 0.00 80 1097.2
20260510002221 41 180 0.0 0.0 0.00 0.00 0.00 80 1058.5
20260510001730 41 157 50.0 0.0 0.00 0.00 0.00 80 994.7
20260510001722 41 157 0.0 0.0 0.00 0.00 0.00 80 994.7
20260510001221 41 157 0.0 0.0 0.00 0.00 0.00 80 1033.4
20260510000722 41 180 0.0 0.0 0.00 0.00 0.00 79 1090.9
20260510000221 41 180 0.0 0.0 0.00 0.00 0.00 79 1056.2
20260510000021 41 180 0.0 0.0 0.00 0.00 0.00 79 1084.7
20260509235721 41 180 0.0 0.0 0.00 0.00 0.00 79 1049.1
20260509235221 41 202 0.0 0.0 0.00 0.00 0.00 79 1027.1
20260509234721 41 202 0.0 0.0 0.00 0.00 0.00 79 1036.5
20260509234221 41 180 0.0 0.0 0.00 0.00 0.00 79 1078.4
20260509233721 42 180 0.0 0.0 0.00 0.00 0.00 79 1072.1
20260509233221 42 180 0.0 0.0 0.00 0.00 0.00 78 1039.7
20260509232721 42 157 0.0 0.0 0.00 0.00 0.00 78 982.2
20260509232221 42 135 0.0 0.0 0.00 0.00 0.00 78 1059.3
20260509231722 42 135 0.0 0.0 0.00 0.00 0.00 78 1084.7
20260509231221 42 135 0.0 0.0 0.00 0.00 0.00 78 1078.4
20260509230722 42 135 0.0 0.0 0.00 0.00 0.00 78 1049.1
20260509230222 42 135 0.0 0.0 0.00 0.00 0.00 78 1081.5
20260509225722 43 112 0.0 0.0 0.00 0.00 0.00 78 1010.4
20260509225421 43 135 0.0 0.0 0.00 0.00 0.00 77 1039.7
20260509225222 43 135 0.0 0.0 0.00 0.00 0.00 77 1062.6
20260509224722 43 135 0.0 0.0 0.00 0.00 0.00 77 1078.4
20260509224222 43 135 0.0 0.0 0.00 0.00 0.00 77 1075.2
20260509223722 43 112 0.0 0.0 0.00 0.00 0.00 77 1062.7
20260509223222 43 135 0.0 0.0 0.00 0.00 0.00 77 1065.8
20260509222731 43 112 0.0 0.0 0.00 0.00 0.00 77 997.9
20260509222722 43 112 0.0 0.0 0.00 0.00 0.00 77 997.9
20260509222222 43 135 0.0 0.0 0.00 0.00 0.00 77 1081.5
20260509222121 44 135 0.0 0.0 0.00 0.00 0.00 77 1078.4
20260509221722 44 157 0.0 0.0 0.00 0.00 0.00 77 1084.7
20260509221222 44 135 0.0 0.0 0.00 0.00 0.00 77 1027.1
20260509220722 44 112 0.0 0.0 0.00 0.00 0.00 77 1069.0
20260509220222 44 67 0.0 0.0 0.00 0.00 0.00 77 1049.1
20260509215722 44 67 0.0 0.0 0.00 0.00 0.00 77 1047.0
20260509215222 44 135 0.0 0.0 0.00 0.00 0.00 77 959.2
20260509214821 44 112 0.0 0.0 0.00 0.00 0.00 77 1016.6
20260509214722 44 112 0.0 0.0 0.00 0.00 0.00 77 920.4
20260509214222 44 90 0.0 0.0 0.00 0.00 0.00 77 1039.7
20260509213722 44 112 0.0 0.0 0.00 0.00 0.00 76 1097.2
20260509213222 44 45 0.0 0.0 0.00 0.00 0.00 76 988.4
20260509212722 44 112 0.0 0.0 0.00 0.00 0.00 76 1097.2
20260509212222 44 112 0.0 0.0 0.00 0.00 0.00 76 1081.5
20260509211722 44 112 0.0 0.0 0.00 0.00 0.00 75 1019.6
20260509211521 44 112 0.0 0.0 0.00 0.00 0.00 75 1058.5
20260509211222 44 90 0.0 0.0 0.00 0.00 0.00 75 1049.1
20260509210722 44 90 0.0 0.0 0.00 0.00 0.00 75 1045.9
20260509210222 44 112 0.0 0.0 0.00 0.00 0.00 74 1052.2
20260509205722 44 112 0.0 0.0 0.00 0.00 0.00 74 971.0
20260509205222 44 67 0.0 0.0 0.00 0.00 0.00 74 1075.3
20260509204722 44 112 0.0 1.0 0.00 0.00 0.00 73 1081.5
20260509204221 45 135 0.0 1.0 0.00 0.00 0.00 73 997.9
20260509203722 45 112 0.0 2.0 0.00 0.00 0.00 73 1052.2
20260509203222 45 135 0.0 0.0 0.00 0.00 0.00 73 1037.5
20260509202722 45 90 0.0 0.0 0.00 0.00 0.00 72 1042.8
20260509202222 46 112 1.0 1.0 0.00 0.00 0.00 72 1055.4
20260509201722 46 90 0.0 0.0 0.00 0.00 0.00 71 955.4
20260509201222 46 90 0.0 0.0 0.00 0.00 0.00 71 1042.8
20260509200921 46 90 0.0 1.0 0.00 0.00 0.00 71 1082.2
20260509200722 46 90 0.0 1.0 0.00 0.00 0.00 71 1052.2
20260509200222 46 45 0.0 1.0 0.00 0.00 0.00 70 1013.5
20260509195722 47 112 0.0 0.0 0.00 0.00 0.00 69 1090.9
20260509195222 47 112 0.0 0.0 0.00 0.00 0.00 70 1024.3
20260509194722 47 112 0.0 1.0 0.00 0.00 0.00 69 997.5
20260509194222 48 90 0.0 2.0 0.00 0.00 0.00 69 1087.8
20260509193722 48 112 1.0 2.0 0.00 0.00 0.00 69 1087.8
20260509193621 48 67 2.0 2.0 0.00 0.00 0.00 69 1027.0
20260509193222 48 90 0.0 3.0 0.00 0.00 0.00 68 1004.1
20260509192722 48 112 0.0 2.0 0.00 0.00 0.00 68 1057.9
20260509192222 48 112 1.0 2.0 0.00 0.00 0.00 68 1049.1
20260509191722 49 112 0.0 3.0 0.00 0.00 0.00 68 937.6
20260509191222 49 135 2.0 3.0 0.00 0.00 0.00 67 942.2
20260509190722 49 67 0.0 2.0 0.00 0.00 0.00 66 1081.5
20260509190321 49 112 1.0 3.0 0.00 0.00 0.00 66 1094.1
20260509190222 49 67 1.0 3.0 0.00 0.00 0.00 66 1042.8
20260509185723 50 112 1.0 2.0 0.00 0.00 0.00 65 964.9
20260509185222 50 112 2.0 2.0 0.00 0.00 0.00 65 1083.7
20260509184722 50 67 0.0 2.0 0.00 0.00 0.00 64 1053.5
20260509184222 51 135 2.0 2.0 0.00 0.00 0.00 63 1039.1
20260509183723 51 112 0.0 2.0 0.00 0.00 0.00 62 1046.0
20260509183222 52 112 0.0 2.0 0.00 0.00 0.00 62 1019.7
20260509183021 52 112 0.0 2.0 0.00 0.00 0.00 62 1049.0
20260509182722 52 112 0.0 2.0 0.00 0.00 0.00 61 923.5
20260509182222 53 67 2.0 2.0 0.00 0.00 0.00 60 1042.8
20260509181722 53 67 2.0 3.0 0.00 0.00 0.00 60 972.7
20260509181222 54 112 2.0 4.0 0.00 0.00 0.00 59 1087.8
20260509180722 54 67 2.0 3.0 0.00 0.00 0.00 58 946.6
20260509180222 55 90 2.0 4.0 0.00 0.00 0.00 57 1010.3
20260509175721 55 67 3.0 5.0 0.00 0.00 0.00 56 1009.9
20260509175222 55 90 1.0 6.0 0.00 0.00 0.00 56 1032.9
20260509174722 55 67 4.0 8.0 0.00 0.00 0.00 56 1021.8
20260509174231 56 22 8.0 8.0 0.00 0.00 0.00 55 1012.8
20260509174223 56 22 8.0 8.0 0.00 0.00 0.00 55 1012.8
20260509173722 56 45 4.0 6.0 0.00 0.00 0.00 55 961.2
20260509173222 57 22 5.0 6.0 0.00 0.00 0.00 55 932.6
20260509172722 57 22 5.0 7.0 0.00 0.00 0.00 55 1035.6
20260509172421 57 67 5.0 9.0 0.00 0.00 0.00 55 1017.8
20260509172222 57 90 4.0 11.0 0.00 0.00 0.00 55 1010.4
20260509171722 57 90 7.0 11.0 0.00 0.00 0.00 55 979.8
20260509171222 58 67 9.0 10.0 0.00 0.00 0.00 55 1045.8
20260509170722 58 45 5.0 11.0 0.00 0.00 0.00 55 959.0
20260509170222 58 45 9.0 12.0 0.00 0.00 0.00 55 1009.3
20260509165722 58 22 6.0 10.0 0.00 0.00 0.00 55 1041.3
20260509165222 58 22 7.0 11.0 0.00 0.00 0.00 55 1061.6
20260509165121 58 22 8.0 11.0 0.00 0.00 0.00 54 997.8
20260509164722 58 22 4.0 10.0 0.00 0.00 0.00 54 1007.3
20260509164222 57 22 4.0 9.0 0.00 0.00 0.00 54 1033.4
20260509163722 58 22 2.0 9.0 0.00 0.00 0.00 54 1084.7
20260509163222 58 0 8.0 8.0 0.00 0.00 0.00 54 1013.5
20260509162722 58 337 3.0 8.0 0.00 0.00 0.00 54 1039.7
20260509162222 58 22 5.0 7.0 0.00 0.00 0.00 54 1090.9
20260509161821 58 22 5.0 9.0 0.00 0.00 0.00 53 997.8
20260509161722 58 0 2.0 9.0 0.00 0.00 0.00 53 1055.4
20260509161222 58 45 4.0 8.0 0.00 0.00 0.00 53 1036.5
20260509160722 59 0 4.0 12.0 0.00 0.00 0.00 52 914.2
20260509160222 59 22 10.0 10.0 0.00 0.00 0.00 52 965.4
20260509155722 58 0 5.0 12.0 0.00 0.00 0.00 51 1039.7
20260509155223 58 0 3.0 11.0 0.00 0.00 0.00 51 1087.8
20260509154722 58 0 6.0 10.0 0.00 0.00 0.00 51 1033.4
20260509154521 58 337 6.0 10.0 0.00 0.00 0.00 51 1052.2
20260509154222 58 22 3.0 9.0 0.00 0.00 0.00 50 1049.1
20260509153722 58 337 3.0 14.0 0.00 0.00 0.00 50 1007.3
20260509153223 59 0 8.0 11.0 0.00 0.00 0.00 50 997.9
20260509152722 59 337 4.0 13.0 0.00 0.00 0.00 49 1036.5
20260509152222 60 337 10.0 15.0 0.00 0.00 0.00 49 994.7
20260509151722 60 22 12.0 12.0 0.00 0.00 0.00 49 1072.1
20260509151221 60 337 5.0 12.0 0.00 0.00 0.00 48 1069.0
20260509150722 60 315 8.0 15.0 0.00 0.00 0.00 49 1059.5
20260509150222 60 315 15.0 17.0 0.00 0.00 0.00 49 952.9
20260509145722 60 45 5.0 13.0 0.00 0.00 0.00 51 1078.4
20260509145222 60 270 5.0 13.0 0.00 0.00 0.00 52 1075.2
20260509144722 59 270 1.0 11.0 0.00 0.00 0.00 55 1075.3
20260509144222 58 315 10.0 10.0 0.00 0.00 0.00 57 1087.8
20260509143921 58 315 4.0 8.0 0.00 0.00 0.00 57 1084.7
20260509143722 58 0 2.0 8.0 0.00 0.00 0.00 57 1039.7
20260509143222 57 22 4.0 6.0 0.00 0.00 0.00 57 1042.8
20260509142722 57 22 2.0 9.0 0.00 0.00 0.00 56 1078.4
20260509142222 57 22 4.0 10.0 0.00 0.00 0.00 56 1033.4
20260509141732 58 67 3.0 8.0 0.00 0.00 0.00 56 1042.1
20260509141722 58 67 3.0 8.0 0.00 0.00 0.00 56 1042.8
20260509141222 58 0 2.0 7.0 0.00 0.00 0.00 55 1046.0
20260509140722 58 0 6.0 11.0 0.00 0.00 0.00 54 1027.1
20260509140622 58 337 7.0 11.0 0.00 0.00 0.00 54 1065.8
20260509140222 58 292 6.0 9.0 0.00 0.00 0.00 54 1068.9
20260509135722 58 0 2.0 6.0 0.00 0.00 0.00 54 1069.0
20260509135222 58 337 2.0 9.0 0.00 0.00 0.00 53 1059.5
20260509134722 59 337 8.0 12.0 0.00 0.00 0.00 52 1062.7
20260509134223 60 315 9.0 11.0 0.00 0.00 0.00 51 1021.9
20260509133723 60 270 9.0 12.0 0.00 0.00 0.00 50 1028.6
20260509133322 61 292 7.0 12.0 0.00 0.00 0.00 51 1032.3
20260509133223 61 270 8.0 10.0 0.00 0.00 0.00 51 1016.6
20260509132723 61 270 10.0 10.0 0.00 0.00 0.00 50 1016.9
20260509132223 61 0 5.0 7.0 0.00 0.00 0.00 50 1010.8
20260509131723 61 270 7.0 11.0 0.00 0.00 0.00 50 1018.8
20260509131223 61 292 6.0 9.0 0.00 0.00 0.00 50 1030.8
20260509130723 61 337 7.0 13.0 0.00 0.00 0.00 50 1032.8
20260509130223 61 292 1.0 9.0 0.00 0.00 0.00 50 1038.3
20260509130022 62 270 3.0 9.0 0.00 0.00 0.00 49 1047.4
20260509125723 62 292 3.0 10.0 0.00 0.00 0.00 49 1028.0
20260509125223 62 315 1.0 10.0 0.00 0.00 0.00 50 1044.2
20260509124723 62 337 3.0 8.0 0.00 0.00 0.00 51 1029.6
20260509124223 61 270 4.0 10.0 0.00 0.00 0.00 50 1034.8
20260509123723 62 315 6.0 11.0 0.00 0.00 0.00 50 1069.7
20260509123223 62 270 3.0 4.0 0.00 0.00 0.00 53 1062.6
20260509122722 61 292 0.0 3.0 0.00 0.00 0.00 53 1065.8
20260509122223 61 337 2.0 3.0 0.00 0.00 0.00 53 1056.3
20260509121723 60 0 2.0 6.0 0.00 0.00 0.00 53 1048.9
20260509121223 60 0 3.0 6.0 0.00 0.00 0.00 53 1022.2
20260509120723 60 337 3.0 8.0 0.00 0.00 0.00 52 1043.6
20260509120223 61 0 3.0 6.0 0.00 0.00 0.00 52 1027.2
20260509115723 60 315 0.0 9.0 0.00 0.00 0.00 52 1031.3
20260509115422 60 22 3.0 8.0 0.00 0.00 0.00 52 1013.3
20260509115223 60 22 6.0 8.0 0.00 0.00 0.00 52 1052.3
20260509114723 60 337 0.0 10.0 0.00 0.00 0.00 52 1013.3
20260509114223 60 292 10.0 10.0 0.00 0.00 0.00 52 1023.2
20260509113723 60 0 8.0 8.0 0.00 0.00 0.00 53 1003.1
20260509113223 60 315 5.0 10.0 0.00 0.00 0.00 54 1042.8
20260509112723 59 0 3.0 8.0 0.00 0.00 0.00 55 1038.3
20260509112223 58 337 2.0 9.0 0.00 0.00 0.00 54 1036.1
20260509112122 59 0 6.0 9.0 0.00 0.00 0.00 54 1018.8
20260509111723 59 315 2.0 12.0 0.00 0.00 0.00 53 1028.9
20260509111223 60 292 10.0 11.0 0.00 0.00 0.00 52 1059.6
20260509110723 61 0 4.0 11.0 0.00 0.00 0.00 52 1072.1
20260509110223 61 0 3.0 8.0 0.00 0.00 0.00 53 1062.7
20260509105723 61 22 4.0 7.0 0.00 0.00 0.00 53 1060.0
20260509105223 60 0 9.0 9.0 0.00 0.00 0.00 55 1053.2
20260509104822 59 0 3.0 8.0 0.00 0.00 0.00 55 1042.0
20260509104723 59 0 7.0 8.0 0.00 0.00 0.00 56 1079.3
20260509104223 58 337 6.0 9.0 0.00 0.00 0.00 58 1040.6
20260509103723 57 337 4.0 9.0 0.00 0.00 0.00 60 1043.8
20260509103223 56 22 9.0 9.0 0.00 0.00 0.00 60 1043.7
20260509102723 55 0 4.0 10.0 0.00 0.00 0.00 61 1028.0
20260509102223 55 337 10.0 13.0 0.00 0.00 0.00 60 1044.2
20260509101723 55 22 8.0 14.0 0.00 0.00 0.00 59 1038.0
20260509101522 55 337 10.0 14.0 0.00 0.00 0.00 58 1012.0
20260509101223 55 0 10.0 13.0 0.00 0.00 0.00 58 1078.4
20260509100723 56 22 6.0 11.0 0.00 0.00 0.00 57 1066.1
20260509100223 57 0 8.0 10.0 0.00 0.00 0.00 56 1068.9
20260509095723 58 22 10.0 10.0 0.00 0.00 0.00 57 1067.5
20260509095223 57 0 7.0 14.0 0.00 0.00 0.00 57 1042.8
20260509094723 56 22 6.0 16.0 0.00 0.00 0.00 57 1078.4
20260509094222 56 45 6.0 17.0 0.00 0.00 0.00 56 1065.8
20260509093723 57 0 5.0 15.0 0.00 0.00 0.00 56 1090.9
20260509093223 58 45 9.0 15.0 0.00 0.00 0.00 55 1090.9
20260509092723 58 0 4.0 15.0 0.00 0.00 0.00 56 1090.9
20260509092223 58 45 7.0 15.0 0.00 0.00 0.00 57 1084.6
20260509091723 57 22 6.0 16.0 0.00 0.00 0.00 57 1052.2
20260509091223 57 22 5.0 16.0 0.00 0.00 0.00 58 1055.3
20260509090922 57 0 10.0 16.0 0.00 0.00 0.00 59 997.9
20260509090723 57 0 8.0 13.0 0.00 0.00 0.00 59 1094.1
20260509090223 57 135 2.0 13.0 0.00 0.00 0.00 59 1042.8
20260509085723 57 0 5.0 16.0 0.00 0.00 0.00 61 1078.4
20260509085223 56 22 2.0 9.0 0.00 0.00 0.00 61 1024.0
20260509084723 56 0 8.0 14.0 0.00 0.00 0.00 62 1097.2
20260509084223 56 225 2.0 11.0 0.00 0.00 0.00 62 1030.1
20260509083723 55 22 6.0 15.0 0.00 0.00 0.00 64 1084.7
20260509083622 55 22 12.0 15.0 0.00 0.00 0.00 64 1075.2
20260509083223 54 337 8.0 15.0 0.00 0.00 0.00 65 1087.8
20260509082723 52 337 9.0 10.0 0.00 0.00 0.00 69 1051.2
20260509082223 51 0 10.0 12.0 0.00 0.00 0.00 70 1049.1
20260509081723 51 337 8.0 12.0 0.00 0.00 0.00 69 1008.1
20260509081223 52 22 8.0 16.0 0.00 0.00 0.00 68 1087.8
20260509080733 52 22 12.0 13.0 0.00 0.00 0.00 68 976.0
20260509080723 52 22 13.0 13.0 0.00 0.00 0.00 68 976.0
20260509080322 52 337 3.0 11.0 0.00 0.00 0.00 68 1052.1
20260509080223 52 337 7.0 11.0 0.00 0.00 0.00 68 999.5
20260509075723 52 337 5.0 14.0 0.00 0.00 0.00 68 1056.9
20260509075223 52 0 5.0 7.0 0.00 0.00 0.00 68 1001.0
20260509074723 52 337 4.0 12.0 0.00 0.00 0.00 67 1016.7
20260509074223 53 0 5.0 12.0 0.00 0.00 0.00 67 1058.5
20260509073723 54 0 8.0 13.0 0.00 0.00 0.00 67 1010.4
20260509073223 54 22 7.0 12.0 0.00 0.00 0.00 67 1052.2
20260509073022 55 0 6.0 9.0 0.00 0.00 0.00 67 1056.3
20260509072723 55 45 6.0 9.0 0.00 0.00 0.00 68 1045.9
20260509072223 54 337 3.0 10.0 0.00 0.00 0.00 70 1084.6
20260509071724 53 22 6.0 10.0 0.00 0.00 0.00 71 1010.4
20260509071223 52 337 6.0 12.0 0.00 0.00 0.00 71 976.4
20260509070723 52 337 4.0 10.0 0.00 0.00 0.00 72 1007.2
20260509070223 52 315 6.0 13.0 0.00 0.00 0.00 73 994.5
20260509065722 51 0 7.0 12.0 0.00 0.00 0.00 73 1050.7
20260509065223 51 22 5.0 12.0 0.00 0.00 0.00 73 1046.0
20260509064723 51 337 10.0 12.0 0.00 0.00 0.00 73 1055.4
20260509064223 51 337 8.0 13.0 0.00 0.00 0.00 72 1055.4
20260509063723 51 45 4.0 12.0 0.00 0.00 0.00 73 968.5
20260509063223 51 0 8.0 11.0 0.00 0.00 0.00 73 1019.8
20260509062723 51 0 10.0 12.0 0.00 0.00 0.00 73 1000.0
20260509062422 51 0 6.0 12.0 0.00 0.00 0.00 73 1010.4
20260509062223 52 337 9.0 12.0 0.00 0.00 0.00 73 1042.8
20260509061723 52 292 7.0 7.0 0.00 0.00 0.00 73 971.5
20260509061223 52 45 4.0 11.0 0.00 0.00 0.00 73 1045.9
20260509060723 52 0 10.0 14.0 0.00 0.00 0.00 74 1016.7
20260509060223 53 315 4.0 9.0 0.00 0.00 0.00 73 1039.7
20260509055723 53 0 3.0 14.0 0.00 0.00 0.00 72 1007.3
20260509055223 54 337 6.0 11.0 0.00 0.00 0.00 74 1010.4
20260509055122 54 22 6.0 11.0 0.00 0.00 0.00 75 952.9
20260509054723 54 0 8.0 10.0 0.00 0.00 0.00 77 1022.7
20260509054223 53 337 6.0 9.0 0.00 0.00 0.00 80 1016.7
20260509053723 52 22 5.0 9.0 0.00 0.00 0.00 82 994.7
20260509053223 51 292 2.0 7.0 0.00 0.00 0.00 83 1042.7
20260509052723 50 22 7.0 8.0 0.00 0.00 0.00 84 1023.4
20260509052223 50 270 1.0 4.0 0.00 0.00 0.00 85 1015.0
20260509051822 49 45 2.0 8.0 0.00 0.00 0.00 85 1049.0
20260509051723 49 337 1.0 8.0 0.00 0.00 0.00 85 1004.1
20260509051223 49 0 4.0 10.0 0.00 0.00 0.00 85 1064.8
20260509050723 49 292 7.0 9.0 0.00 0.00 0.00 85 1094.1
20260509050223 49 22 3.0 11.0 0.00 0.00 0.00 86 1032.2
20260509045723 49 315 7.0 8.0 0.00 0.00 0.00 86 1042.8
20260509045223 49 292 8.0 9.0 0.00 0.00 0.00 86 994.7
20260509044724 49 337 5.0 8.0 0.00 0.00 0.00 87 1004.1
20260509044523 49 22 2.0 7.0 0.00 0.00 0.00 87 1064.7
20260509044223 49 0 7.0 7.0 0.00 0.00 0.00 87 1010.4
20260509043724 48 0 4.0 6.0 0.00 0.00 0.00 87 1106.6
20260509043223 48 315 2.0 7.0 0.00 0.00 0.00 88 917.3
20260509042723 48 337 2.0 7.0 0.00 0.00 0.00 88 1004.1
20260509042223 48 337 4.0 7.0 0.00 0.00 0.00 88 1064.7
20260509041724 48 0 4.0 6.0 0.00 0.00 0.00 88 1010.4
20260509041223 48 337 4.0 9.0 0.00 0.00 0.00 89 1010.4
20260509041006 48 337 3.0 4.0 0.00 0.00 0.00 89 1010.4